timestamp,wind_dir_avg,wind_spd_max_dir,wind_spd_avg,wind_spd_gust,battery_voltage,lat,long
2018-02-09 00:00:00+00:00,25.0,28.0,9.47,11.26,,47.59359,-54.27349
2018-02-09 00:10:00+00:00,19.0,14.0,9.39,11.38,,47.59359,-54.27349
2018-02-09 00:20:00+00:00,22.0,29.0,8.72,10.76,,47.59359,-54.27349
2018-02-09 00:30:00+00:00,21.0,14.0,7.98,10.23,,47.59359,-54.27349
2018-02-09 00:40:00+00:00,16.0,11.0,9.43,10.62,,47.59359,-54.27349
2018-02-09 00:50:00+00:00,21.0,26.0,8.54,10.15,,47.59359,-54.27349
2018-02-09 01:00:00+00:00,12.0,10.0,9.06,10.29,,47.59359,-54.27349
2018-02-09 01:10:00+00:00,17.0,22.0,10.24,11.99,,47.59359,-54.27349
2018-02-09 01:20:00+00:00,9.0,11.0,9.62,11.25,,47.59359,-54.27349
2018-02-09 01:30:00+00:00,9.0,6.0,8.53,9.49,,47.59359,-54.27349
2018-02-09 01:40:00+00:00,20.0,27.0,7.76,8.95,,47.59359,-54.27349
2018-02-09 01:50:00+00:00,17.0,19.0,7.29,8.64,,47.59359,-54.27349
2018-02-09 02:00:00+00:00,13.0,15.0,7.47,8.72,,47.59359,-54.27349
2018-02-09 02:10:00+00:00,25.0,27.0,7.82,8.87,,47.59359,-54.27349
2018-02-09 02:20:00+00:00,21.0,12.0,7.04,8.56,,47.59359,-54.27349
2018-02-09 02:30:00+00:00,11.0,11.0,8.07,11.32,,47.59359,-54.27349
2018-02-09 02:40:00+00:00,13.0,15.0,7.27,8.28,,47.59359,-54.27349
2018-02-09 02:50:00+00:00,37.0,39.0,7.19,8.44,,47.59359,-54.27349
2018-02-09 03:00:00+00:00,33.0,36.0,6.9,8.31,,47.59359,-54.27349
2018-02-09 03:10:00+00:00,8.0,11.0,9.03,10.28,,47.59359,-54.27349
2018-02-09 03:20:00+00:00,5.0,4.0,8.84,11.24,,47.59359,-54.27349
2018-02-09 03:30:00+00:00,11.0,19.0,9.22,10.96,,47.59359,-54.27349
2018-02-09 03:40:00+00:00,9.0,6.0,10.96,11.97,,47.59359,-54.27349
2018-02-09 03:50:00+00:00,9.0,8.0,9.13,10.15,,47.59359,-54.27349
2018-02-09 04:00:00+00:00,35.0,31.0,9.91,11.3,,47.59359,-54.27349
2018-02-09 04:10:00+00:00,34.0,41.0,8.3,9.47,,47.59359,-54.27349
2018-02-09 04:20:00+00:00,13.0,16.0,6.98,9.49,,47.59359,-54.27349
2018-02-09 04:30:00+00:00,11.0,13.0,9.26,10.6,,47.59359,-54.27349
2018-02-09 04:40:00+00:00,9.0,8.0,9.03,10.53,,47.59359,-54.27349
2018-02-09 04:50:00+00:00,36.0,42.0,7.86,9.03,,47.59359,-54.27349
2018-02-09 05:00:00+00:00,32.0,29.0,6.69,8.48,,47.59359,-54.27349
2018-02-09 05:10:00+00:00,39.0,39.0,7.8,9.38,,47.59359,-54.27349
2018-02-09 05:20:00+00:00,17.0,8.0,5.62,6.69,,47.59359,-54.27349
2018-02-09 05:30:00+00:00,12.0,19.0,9.12,10.49,,47.59359,-54.27349
2018-02-09 05:40:00+00:00,3.0,355.0,10.01,11.68,,47.59359,-54.27349
2018-02-09 05:50:00+00:00,11.0,15.0,9.15,10.83,,47.59359,-54.27349
2018-02-09 06:00:00+00:00,3.0,4.0,10.17,11.23,,47.59359,-54.27349
2018-02-09 06:10:00+00:00,13.0,9.0,9.31,11.08,,47.59359,-54.27349
2018-02-09 06:20:00+00:00,16.0,15.0,7.87,10.04,,47.59359,-54.27349
2018-02-09 06:30:00+00:00,5.0,357.0,8.55,10.16,,47.59359,-54.27349
2018-02-09 06:40:00+00:00,7.0,2.0,6.44,7.57,,47.59359,-54.27349
2018-02-09 06:50:00+00:00,9.0,9.0,7.28,8.05,,47.59359,-54.27349
2018-02-09 07:00:00+00:00,5.0,6.0,7.15,7.75,,47.59359,-54.27349
2018-02-09 07:10:00+00:00,357.0,355.0,6.43,7.14,,47.59359,-54.27349
2018-02-09 07:20:00+00:00,1.0,358.0,7.1,8.25,,47.59359,-54.27349
2018-02-09 07:30:00+00:00,4.0,3.0,5.91,7.07,,47.59359,-54.27349
2018-02-09 07:40:00+00:00,346.0,349.0,6.37,8.18,,47.59359,-54.27349
2018-02-09 07:50:00+00:00,351.0,348.0,6.2,6.84,,47.59359,-54.27349
2018-02-09 08:00:00+00:00,5.0,0.0,7.04,9.12,,47.59359,-54.27349
2018-02-09 08:10:00+00:00,358.0,353.0,6.52,7.49,,47.59359,-54.27349
2018-02-09 08:20:00+00:00,355.0,357.0,6.32,7.24,,47.59359,-54.27349
2018-02-09 08:30:00+00:00,345.0,346.0,7.32,8.28,,47.59359,-54.27349
2018-02-09 08:40:00+00:00,345.0,354.0,6.41,7.5,,47.59359,-54.27349
2018-02-09 08:50:00+00:00,342.0,334.0,6.32,8.1,,47.59359,-54.27349
2018-02-09 09:00:00+00:00,339.0,329.0,5.9,7.14,,47.59359,-54.27349
2018-02-09 09:10:00+00:00,336.0,341.0,6.57,7.63,,47.59359,-54.27349
2018-02-09 09:20:00+00:00,332.0,330.0,6.58,7.98,,47.59359,-54.27349
2018-02-09 09:30:00+00:00,334.0,335.0,6.85,8.28,,47.59359,-54.27349
2018-02-09 09:40:00+00:00,340.0,343.0,6.01,7.14,,47.59359,-54.27349
2018-02-09 09:50:00+00:00,333.0,338.0,6.16,7.75,,47.59359,-54.27349
2018-02-09 10:00:00+00:00,342.0,341.0,7.74,9.33,,47.59359,-54.27349
2018-02-09 10:10:00+00:00,344.0,344.0,6.75,8.14,,47.59359,-54.27349
2018-02-09 10:20:00+00:00,334.0,339.0,7.06,8.07,,47.59359,-54.27349
2018-02-09 10:30:00+00:00,340.0,342.0,7.62,8.58,,47.59359,-54.27349
2018-02-09 10:40:00+00:00,339.0,340.0,7.15,8.21,,47.59359,-54.27349
2018-02-09 10:50:00+00:00,343.0,345.0,6.79,8.33,,47.59359,-54.27349
2018-02-09 11:00:00+00:00,342.0,347.0,6.5,8.28,,47.59359,-54.27349
2018-02-09 11:10:00+00:00,336.0,330.0,6.9,8.2,,47.59359,-54.27349
2018-02-09 11:20:00+00:00,337.0,336.0,6.64,7.8,,47.59359,-54.27349
2018-02-09 11:30:00+00:00,335.0,342.0,7.22,8.16,,47.59359,-54.27349
2018-02-09 11:40:00+00:00,339.0,339.0,8.34,9.37,,47.59359,-54.27349
2018-02-09 11:50:00+00:00,344.0,343.0,7.69,8.82,,47.59359,-54.27349
2018-02-09 12:00:00+00:00,326.0,326.0,8.0,8.94,,47.59359,-54.27349
2018-02-09 12:10:00+00:00,336.0,333.0,8.18,10.1,,47.59359,-54.27349
2018-02-09 12:20:00+00:00,338.0,348.0,7.61,8.39,,47.59359,-54.27349
2018-02-09 12:30:00+00:00,329.0,336.0,7.58,8.78,,47.59359,-54.27349
2018-02-09 12:40:00+00:00,340.0,340.0,6.72,7.96,,47.59359,-54.27349
2018-02-09 12:50:00+00:00,341.0,339.0,5.11,7.0,,47.59359,-54.27349
2018-02-09 13:00:00+00:00,357.0,340.0,3.78,6.09,,47.59359,-54.27349
2018-02-09 13:10:00+00:00,333.0,345.0,4.65,6.04,,47.59359,-54.27349
2018-02-09 13:20:00+00:00,331.0,320.0,4.4,5.51,,47.59359,-54.27349
2018-02-09 13:30:00+00:00,318.0,318.0,5.61,6.41,,47.59359,-54.27349
2018-02-09 13:40:00+00:00,315.0,318.0,5.74,6.61,,47.59359,-54.27349
2018-02-09 13:50:00+00:00,320.0,317.0,4.94,5.79,,47.59359,-54.27349
2018-02-09 14:00:00+00:00,314.0,319.0,5.48,6.26,,47.59359,-54.27349
2018-02-09 14:10:00+00:00,319.0,318.0,5.82,6.44,,47.59359,-54.27349
2018-02-09 14:20:00+00:00,308.0,308.0,3.8,4.78,,47.59359,-54.27349
2018-02-09 14:30:00+00:00,290.0,291.0,4.03,4.54,,47.59359,-54.27349
2018-02-09 14:40:00+00:00,305.0,303.0,4.64,5.57,,47.59359,-54.27349
2018-02-09 14:50:00+00:00,298.0,299.0,5.78,6.56,,47.59359,-54.27349
2018-02-09 15:00:00+00:00,314.0,307.0,4.97,5.75,,47.59359,-54.27349
2018-02-09 15:10:00+00:00,290.0,291.0,7.45,9.48,,47.59359,-54.27349
2018-02-09 15:20:00+00:00,295.0,294.0,4.64,5.46,,47.59359,-54.27349
2018-02-09 15:30:00+00:00,312.0,312.0,5.08,5.74,,47.59359,-54.27349
2018-02-09 15:40:00+00:00,312.0,312.0,6.13,7.16,,47.59359,-54.27349
2018-02-09 15:50:00+00:00,311.0,308.0,5.77,6.61,,47.59359,-54.27349
2018-02-09 16:00:00+00:00,302.0,299.0,5.76,6.74,,47.59359,-54.27349
2018-02-09 16:10:00+00:00,304.0,307.0,6.99,7.82,,47.59359,-54.27349
2018-02-09 16:20:00+00:00,303.0,307.0,6.67,7.67,,47.59359,-54.27349
2018-02-09 16:30:00+00:00,311.0,308.0,6.49,7.88,,47.59359,-54.27349
2018-02-09 16:40:00+00:00,324.0,320.0,6.35,7.28,,47.59359,-54.27349
2018-02-09 16:50:00+00:00,296.0,303.0,4.1,5.2,,47.59359,-54.27349
2018-02-09 17:00:00+00:00,268.0,273.0,6.27,8.14,,47.59359,-54.27349
2018-02-09 17:10:00+00:00,289.0,296.0,5.29,5.94,,47.59359,-54.27349
2018-02-09 17:20:00+00:00,271.0,269.0,8.73,10.73,,47.59359,-54.27349
2018-02-09 17:30:00+00:00,274.0,280.0,8.21,9.84,,47.59359,-54.27349
2018-02-09 17:40:00+00:00,271.0,275.0,9.74,11.49,,47.59359,-54.27349
2018-02-09 17:50:00+00:00,279.0,277.0,9.07,10.42,,47.59359,-54.27349
2018-02-09 18:00:00+00:00,284.0,288.0,8.86,10.55,,47.59359,-54.27349
2018-02-09 18:10:00+00:00,287.0,291.0,7.74,8.84,,47.59359,-54.27349
2018-02-09 18:20:00+00:00,299.0,302.0,9.07,10.85,,47.59359,-54.27349
2018-02-09 18:30:00+00:00,286.0,287.0,8.45,9.8,,47.59359,-54.27349
2018-02-09 18:40:00+00:00,282.0,286.0,7.08,8.58,,47.59359,-54.27349
2018-02-09 18:50:00+00:00,276.0,280.0,8.21,9.66,,47.59359,-54.27349
2018-02-09 19:00:00+00:00,286.0,282.0,8.9,10.6,,47.59359,-54.27349
2018-02-09 19:10:00+00:00,281.0,283.0,11.52,13.33,,47.59359,-54.27349
2018-02-09 19:20:00+00:00,287.0,285.0,10.82,12.11,,47.59359,-54.27349
2018-02-09 19:30:00+00:00,283.0,283.0,8.33,10.0,,47.59359,-54.27349
2018-02-09 19:40:00+00:00,285.0,280.0,8.09,9.88,,47.59359,-54.27349
2018-02-09 19:50:00+00:00,270.0,272.0,7.46,8.19,,47.59359,-54.27349
2018-02-09 20:00:00+00:00,271.0,267.0,6.85,8.02,,47.59359,-54.27349
2018-02-09 20:10:00+00:00,285.0,292.0,8.14,9.65,,47.59359,-54.27349
2018-02-09 20:20:00+00:00,303.0,303.0,7.24,8.86,,47.59359,-54.27349
2018-02-09 20:30:00+00:00,285.0,279.0,8.66,9.87,,47.59359,-54.27349
2018-02-09 20:40:00+00:00,275.0,272.0,8.39,9.89,,47.59359,-54.27349
2018-02-09 20:50:00+00:00,272.0,270.0,7.71,8.55,,47.59359,-54.27349
2018-02-09 21:00:00+00:00,276.0,279.0,7.6,8.53,,47.59359,-54.27349
2018-02-09 21:10:00+00:00,295.0,301.0,6.75,7.86,,47.59359,-54.27349
2018-02-09 21:20:00+00:00,304.0,304.0,5.47,6.08,,47.59359,-54.27349
2018-02-09 21:30:00+00:00,288.0,294.0,5.41,6.39,,47.59359,-54.27349
2018-02-09 21:40:00+00:00,296.0,299.0,5.97,7.09,,47.59359,-54.27349
2018-02-09 21:50:00+00:00,303.0,298.0,6.64,7.94,,47.59359,-54.27349
2018-02-09 22:00:00+00:00,294.0,291.0,5.08,6.17,,47.59359,-54.27349
2018-02-09 22:10:00+00:00,294.0,301.0,4.84,5.87,,47.59359,-54.27349
2018-02-09 22:20:00+00:00,292.0,287.0,5.42,6.14,,47.59359,-54.27349
2018-02-09 22:30:00+00:00,294.0,292.0,5.88,7.5,,47.59359,-54.27349
2018-02-09 22:40:00+00:00,310.0,306.0,5.71,6.79,,47.59359,-54.27349
2018-02-09 22:50:00+00:00,300.0,296.0,5.44,6.42,,47.59359,-54.27349
2018-02-09 23:00:00+00:00,286.0,289.0,6.68,7.46,,47.59359,-54.27349
2018-02-09 23:10:00+00:00,309.0,307.0,6.68,8.15,,47.59359,-54.27349
2018-02-09 23:20:00+00:00,315.0,316.0,6.47,7.99,,47.59359,-54.27349
2018-02-09 23:30:00+00:00,332.0,326.0,5.46,6.63,,47.59359,-54.27349
2018-02-09 23:40:00+00:00,331.0,321.0,5.65,6.83,,47.59359,-54.27349
2018-02-09 23:50:00+00:00,320.0,320.0,6.01,7.23,,47.59359,-54.27349
